RYR7ZX LMML-LGAV

Flight info

Callsign RYR7ZX
Flight time 1h 6m
Altitude 36000
Route VESOD DCT INROF DCT RUTOM/N0433F370 DCT ARA UY144 NEMES
Aircraft B738/M-SDE2E3FGHIRWXY/LB1

Departure

Time 2026-05-05 18:52
Airport Malta International Airport (LMML)

Arrival

Time 2026-05-05 19:58
Airport Athens Eleftherios Venizelos International Airport (LGAV)
Time Latitude Longitude Altitude Speed Heading
2026-05-05 18:39 35.84809 14.49514 308 ft 0 kts 360°
2026-05-05 18:46 35.84794 14.49514 308 ft 4 kts
2026-05-05 18:46 35.84767 14.49514 308 ft 4 kts 359°
2026-05-05 18:46 35.84742 14.49516 308 ft 4 kts 338°
2026-05-05 18:46 35.84723 14.49526 308 ft 4 kts 323°
2026-05-05 18:47 35.84713 14.49535 308 ft 0 kts 331°
2026-05-05 18:48 35.84733 14.49516 308 ft 10 kts 321°
2026-05-05 18:49 35.84823 14.49405 308 ft 24 kts 314°
2026-05-05 18:49 35.84928 14.49254 308 ft 23 kts 278°
2026-05-05 18:49 35.84923 14.49073 308 ft 23 kts 308°
2026-05-05 18:49 35.84991 14.48904 308 ft 22 kts 285°
2026-05-05 18:50 35.85036 14.48704 308 ft 31 kts 290°
2026-05-05 18:50 35.85160 14.48498 308 ft 30 kts 316°
2026-05-05 18:50 35.85302 14.48321 308 ft 28 kts 314°
2026-05-05 18:50 35.85433 14.48157 308 ft 26 kts 315°
2026-05-05 18:51 35.85541 14.48019 308 ft 14 kts 245°
2026-05-05 18:51 35.85520 14.48024 308 ft 6 kts 133°
2026-05-05 18:51 35.85387 14.48195 308 ft 60 kts 134°
2026-05-05 18:51 35.84927 14.48766 308 ft 126 kts 135°
2026-05-05 18:52 35.84218 14.49641 638 ft 153 kts 135°
2026-05-05 18:52 35.83458 14.50568 1391 ft 158 kts 135°
2026-05-05 18:52 35.82659 14.51538 2179 ft 163 kts 135°
2026-05-05 18:52 35.81811 14.52584 2669 ft 185 kts 135°
2026-05-05 18:53 35.80840 14.53798 3011 ft 212 kts 135°
2026-05-05 18:53 35.79754 14.55162 3523 ft 233 kts 134°
2026-05-05 18:53 35.78831 14.56893 4065 ft 254 kts 108°
2026-05-05 18:53 35.78776 14.59122 4865 ft 266 kts 81°
2026-05-05 18:54 35.79287 14.61319 5740 ft 272 kts 76°
2026-05-05 18:54 35.79813 14.63589 6609 ft 277 kts 75°
2026-05-05 18:54 35.80355 14.65903 7477 ft 281 kts 75°
2026-05-05 18:54 35.80902 14.68239 8320 ft 285 kts 75°
2026-05-05 18:55 35.81454 14.70604 9138 ft 290 kts 75°
2026-05-05 18:55 35.82015 14.73008 9949 ft 294 kts 75°
2026-05-05 18:55 35.82584 14.75449 10722 ft 300 kts 75°
2026-05-05 18:55 35.83182 14.78018 11164 ft 319 kts 74°
2026-05-05 18:56 35.83811 14.80728 11458 ft 340 kts 74°
2026-05-05 18:56 35.84479 14.83609 11951 ft 353 kts 74°
2026-05-05 18:56 35.85158 14.86540 12654 ft 359 kts 73°
2026-05-05 18:56 35.85848 14.89519 13383 ft 363 kts 73°
2026-05-05 18:57 35.86545 14.92534 14096 ft 368 kts 73°
2026-05-05 18:57 35.87245 14.95566 14792 ft 372 kts 73°
2026-05-05 18:57 35.87958 14.98662 15470 ft 377 kts 73°
2026-05-05 18:57 35.88687 15.01807 16144 ft 382 kts 73°
2026-05-05 18:58 35.89441 15.04958 16798 ft 386 kts 73°
2026-05-05 18:58 35.90202 15.08158 17431 ft 390 kts 73°
2026-05-05 18:58 35.90963 15.11387 18051 ft 395 kts 73°
2026-05-05 18:58 35.91729 15.14655 18682 ft 398 kts 73°
2026-05-05 18:59 35.92499 15.17952 19282 ft 402 kts 73°
2026-05-05 18:59 35.93273 15.21285 19887 ft 406 kts 73°
2026-05-05 18:59 35.94054 15.24655 20481 ft 409 kts 73°
2026-05-05 18:59 35.94837 15.28045 21024 ft 413 kts 73°
2026-05-05 19:00 35.95626 15.31469 21585 ft 416 kts 73°
2026-05-05 19:00 35.96419 15.34917 22108 ft 420 kts 73°
2026-05-05 19:00 35.97220 15.38406 22598 ft 424 kts 72°
2026-05-05 19:00 35.98027 15.41926 23115 ft 427 kts 72°
2026-05-05 19:01 35.98836 15.45463 23601 ft 431 kts 72°
2026-05-05 19:01 35.99651 15.49032 24071 ft 434 kts 72°
2026-05-05 19:01 36.00472 15.52635 24542 ft 437 kts 72°
2026-05-05 19:01 36.01298 15.56259 24966 ft 441 kts 72°
2026-05-05 19:02 36.02129 15.59915 25440 ft 443 kts 72°
2026-05-05 19:02 36.02964 15.63595 25862 ft 446 kts 72°
2026-05-05 19:02 36.03803 15.67298 26287 ft 449 kts 72°
2026-05-05 19:02 36.04643 15.71009 26696 ft 452 kts 72°
2026-05-05 19:03 36.05495 15.74783 27074 ft 455 kts 72°
2026-05-05 19:03 36.06345 15.78553 27486 ft 457 kts 72°
2026-05-05 19:03 36.07202 15.82356 27847 ft 460 kts 72°
2026-05-05 19:03 36.08059 15.86170 28218 ft 463 kts 72°
2026-05-05 19:04 36.08912 15.89968 28580 ft 465 kts 72°
2026-05-05 19:04 36.09789 15.93884 28910 ft 468 kts 72°
2026-05-05 19:04 36.10658 15.97768 29260 ft 470 kts 72°
2026-05-05 19:04 36.11530 16.01674 29596 ft 472 kts 72°
2026-05-05 19:05 36.12394 16.05551 29892 ft 475 kts 72°
2026-05-05 19:05 36.13271 16.09490 30209 ft 477 kts 72°
2026-05-05 19:05 36.14153 16.13459 30500 ft 479 kts 72°
2026-05-05 19:05 36.15038 16.17449 30785 ft 482 kts 72°
2026-05-05 19:06 36.15923 16.21446 31077 ft 484 kts 72°
2026-05-05 19:06 36.16812 16.25470 31398 ft 484 kts 72°
2026-05-05 19:06 36.17698 16.29487 31819 ft 483 kts 72°
2026-05-05 19:06 36.18581 16.33492 32194 ft 482 kts 72°
2026-05-05 19:07 36.19460 16.37494 32527 ft 482 kts 72°
2026-05-05 19:07 36.20053 16.40191 32734 ft 482 kts 72°
2026-05-05 19:07 36.21214 16.45487 33203 ft 482 kts 72°
2026-05-05 19:07 36.22090 16.49495 33547 ft 481 kts 72°
2026-05-05 19:08 36.22963 16.53490 33883 ft 480 kts 72°
2026-05-05 19:08 36.23832 16.57480 34201 ft 480 kts 72°
2026-05-05 19:08 36.24702 16.61475 34539 ft 479 kts 72°
2026-05-05 19:08 36.25567 16.65456 34814 ft 480 kts 72°
2026-05-05 19:09 36.26432 16.69446 35104 ft 480 kts 72°
2026-05-05 19:09 36.27296 16.73440 35392 ft 480 kts 72°
2026-05-05 19:09 36.28158 16.77426 35672 ft 480 kts 72°
2026-05-05 19:09 36.29020 16.81424 35950 ft 480 kts 72°
2026-05-05 19:10 36.29881 16.85423 36219 ft 480 kts 72°
2026-05-05 19:10 36.30741 16.89423 36497 ft 479 kts 72°
2026-05-05 19:10 36.31598 16.93416 36758 ft 479 kts 72°
2026-05-05 19:10 36.32451 16.97402 36973 ft 480 kts 72°
2026-05-05 19:11 36.33308 17.01408 37254 ft 479 kts 72°
2026-05-05 19:11 36.34161 17.05407 37506 ft 479 kts 72°
2026-05-05 19:11 36.35012 17.09398 37760 ft 479 kts 72°
2026-05-05 19:11 36.35861 17.13394 37965 ft 479 kts 72°
2026-05-05 19:12 36.36434 17.16090 38122 ft 479 kts 72°
2026-05-05 19:12 36.37282 17.20089 38313 ft 480 kts 72°
2026-05-05 19:12 36.38129 17.24092 38533 ft 480 kts 72°
2026-05-05 19:12 36.38973 17.28086 38789 ft 478 kts 72°
2026-05-05 19:13 36.39818 17.32094 38963 ft 479 kts 72°
2026-05-05 19:13 36.40663 17.36107 39083 ft 481 kts 72°
2026-05-05 19:13 36.42350 17.44142 39095 ft 482 kts 72°
2026-05-05 19:14 36.44032 17.52182 39100 ft 480 kts 72°
2026-05-05 19:14 36.45707 17.60221 39101 ft 480 kts 72°
2026-05-05 19:15 36.47374 17.68247 39101 ft 480 kts 72°
2026-05-05 19:15 36.49039 17.76294 39096 ft 480 kts 72°
2026-05-05 19:16 36.50697 17.84339 39092 ft 480 kts 72°
2026-05-05 19:16 36.52351 17.92391 39093 ft 480 kts 72°
2026-05-05 19:17 36.53993 18.00416 39094 ft 481 kts 72°
2026-05-05 19:17 36.55637 18.08485 39102 ft 480 kts 72°
2026-05-05 19:18 36.57284 18.16592 39107 ft 480 kts 72°
2026-05-05 19:18 36.58913 18.24640 39108 ft 480 kts 72°
2026-05-05 19:19 36.60542 18.32725 39108 ft 481 kts 72°
2026-05-05 19:19 36.62163 18.40796 39109 ft 481 kts 72°
2026-05-05 19:20 36.63777 18.48861 39110 ft 481 kts 72°
2026-05-05 19:20 36.65389 18.56951 39111 ft 481 kts 72°
2026-05-05 19:21 36.67005 18.65092 39112 ft 480 kts 72°
2026-05-05 19:21 36.68603 18.73169 39113 ft 480 kts 72°
2026-05-05 19:22 36.70205 18.81304 39114 ft 481 kts 72°
2026-05-05 19:22 36.71787 18.89360 39115 ft 481 kts 72°
2026-05-05 19:23 36.73380 18.97508 39116 ft 480 kts 72°
2026-05-05 19:23 36.74954 19.05595 39117 ft 480 kts 72°
2026-05-05 19:24 36.76526 19.13695 39118 ft 481 kts 72°
2026-05-05 19:24 36.78087 19.21774 39119 ft 481 kts 72°
2026-05-05 19:25 36.79656 19.29927 39120 ft 481 kts 72°
2026-05-05 19:25 36.81212 19.38044 39120 ft 480 kts 72°
2026-05-05 19:26 36.82760 19.46151 39122 ft 481 kts 72°
2026-05-05 19:26 36.84316 19.54329 39122 ft 481 kts 72°
2026-05-05 19:27 36.85851 19.62432 39124 ft 481 kts 72°
2026-05-05 19:27 36.87393 19.70608 39126 ft 481 kts 72°
2026-05-05 19:28 36.88923 19.78750 39128 ft 481 kts 72°
2026-05-05 19:28 36.90442 19.86865 39128 ft 481 kts 72°
2026-05-05 19:29 36.91983 19.95132 39131 ft 481 kts 72°
2026-05-05 19:29 36.93508 20.03347 39133 ft 482 kts 72°
2026-05-05 19:30 36.95236 20.11391 39131 ft 480 kts 69°
2026-05-05 19:30 36.97105 20.19468 39133 ft 480 kts 69°
2026-05-05 19:31 36.98947 20.27491 39134 ft 480 kts 69°
2026-05-05 19:31 37.00780 20.35517 39132 ft 480 kts 69°
2026-05-05 19:32 37.02606 20.43544 39132 ft 480 kts 69°
2026-05-05 19:32 37.04459 20.51551 39134 ft 479 kts 69°
2026-05-05 19:33 37.06321 20.59585 39137 ft 481 kts 69°
2026-05-05 19:33 37.08163 20.67630 39139 ft 480 kts 69°
2026-05-05 19:34 37.09994 20.75687 39140 ft 480 kts 69°
2026-05-05 19:35 37.12721 20.87752 39138 ft 480 kts 69°
2026-05-05 19:35 37.13629 20.91787 38830 ft 484 kts 69°
2026-05-05 19:35 37.14232 20.94472 38602 ft 482 kts 69°
2026-05-05 19:35 37.15449 20.99897 37708 ft 484 kts 69°
2026-05-05 19:36 37.16358 21.03959 37077 ft 484 kts 69°
2026-05-05 19:36 37.17263 21.08009 36607 ft 480 kts 69°
2026-05-05 19:36 37.17867 21.10720 36278 ft 478 kts 69°
2026-05-05 19:36 37.18749 21.14679 35771 ft 475 kts 69°
2026-05-05 19:37 37.19650 21.18723 35188 ft 473 kts 70°
2026-05-05 19:37 37.20554 21.22810 34595 ft 472 kts 69°
2026-05-05 19:37 37.21433 21.26777 33989 ft 470 kts 69°
2026-05-05 19:37 37.22301 21.30700 33736 ft 461 kts 69°
2026-05-05 19:38 37.23144 21.34514 33726 ft 445 kts 69°
2026-05-05 19:38 37.24804 21.42048 33525 ft 459 kts 69°
2026-05-05 19:38 37.25661 21.45947 33280 ft 470 kts 69°
2026-05-05 19:39 37.26536 21.49937 33031 ft 479 kts 69°
2026-05-05 19:39 37.27426 21.53999 32780 ft 481 kts 69°
2026-05-05 19:39 37.28308 21.58037 32531 ft 480 kts 69°
2026-05-05 19:39 37.29195 21.62101 32278 ft 480 kts 69°
2026-05-05 19:40 37.30086 21.66193 32027 ft 481 kts 69°
2026-05-05 19:40 37.30959 21.70207 31779 ft 482 kts 69°
2026-05-05 19:40 37.31851 21.74321 31527 ft 484 kts 69°
2026-05-05 19:40 37.32734 21.78398 31276 ft 484 kts 69°
2026-05-05 19:41 37.33617 21.82480 31027 ft 485 kts 69°
2026-05-05 19:41 37.34498 21.86566 30777 ft 486 kts 69°
2026-05-05 19:41 37.35376 21.90640 30529 ft 487 kts 69°
2026-05-05 19:41 37.36272 21.94804 30275 ft 488 kts 69°
2026-05-05 19:42 37.37150 21.98898 30027 ft 489 kts 69°
2026-05-05 19:42 37.38038 22.03045 29775 ft 490 kts 69°
2026-05-05 19:42 37.38919 22.07163 29527 ft 490 kts 69°
2026-05-05 19:42 37.39810 22.11339 29274 ft 491 kts 69°
2026-05-05 19:43 37.40688 22.15459 29027 ft 491 kts 69°
2026-05-05 19:43 37.41572 22.19618 28775 ft 492 kts 69°
2026-05-05 19:43 37.42454 22.23775 28526 ft 492 kts 70°
2026-05-05 19:43 37.43341 22.27958 28274 ft 493 kts 70°
2026-05-05 19:44 37.44219 22.32112 28025 ft 493 kts 70°
2026-05-05 19:44 37.45099 22.36283 27775 ft 494 kts 70°
2026-05-05 19:44 37.45979 22.40462 27525 ft 495 kts 70°
2026-05-05 19:44 37.46862 22.44658 27274 ft 495 kts 70°
2026-05-05 19:45 37.47745 22.48867 27023 ft 495 kts 70°
2026-05-05 19:45 37.48620 22.53046 26774 ft 495 kts 70°
2026-05-05 19:45 37.49500 22.57258 26523 ft 496 kts 70°
2026-05-05 19:45 37.50375 22.61453 26273 ft 497 kts 70°
2026-05-05 19:46 37.51251 22.65658 26023 ft 497 kts 70°
2026-05-05 19:46 37.52128 22.69878 25435 ft 498 kts 70°
2026-05-05 19:46 37.53004 22.74101 24684 ft 498 kts 71°
2026-05-05 19:46 37.53878 22.78323 23933 ft 495 kts 71°
2026-05-05 19:47 37.54728 22.82431 23194 ft 490 kts 71°
2026-05-05 19:47 37.55593 22.86635 22429 ft 484 kts 70°
2026-05-05 19:47 37.56446 22.90770 21669 ft 479 kts 71°
2026-05-05 19:47 37.57277 22.94817 20919 ft 474 kts 71°
2026-05-05 19:48 37.58097 22.98815 20191 ft 469 kts 71°
2026-05-05 19:48 37.58894 23.02710 19996 ft 452 kts 71°
2026-05-05 19:48 37.59667 23.06494 19640 ft 440 kts 71°
2026-05-05 19:48 37.60415 23.10159 19070 ft 435 kts 71°
2026-05-05 19:49 37.61172 23.13878 18432 ft 431 kts 71°
2026-05-05 19:49 37.61667 23.16313 18054 ft 427 kts 71°
2026-05-05 19:49 37.62657 23.21187 17255 ft 421 kts 71°
2026-05-05 19:49 37.63361 23.24660 16478 ft 411 kts 72°
2026-05-05 19:50 37.64065 23.28137 15319 ft 400 kts 72°
2026-05-05 19:50 37.64750 23.31530 14163 ft 390 kts 72°
2026-05-05 19:50 37.65406 23.34780 13043 ft 380 kts 72°
2026-05-05 19:50 37.66054 23.37960 11936 ft 371 kts 72°
2026-05-05 19:51 37.66723 23.41100 10828 ft 362 kts 72°
2026-05-05 19:51 37.67356 23.44155 9745 ft 355 kts 73°
2026-05-05 19:51 37.67962 23.47136 8684 ft 349 kts 73°
2026-05-05 19:51 37.68554 23.50088 7633 ft 343 kts 74°
2026-05-05 19:52 37.69142 23.53032 6642 ft 353 kts 74°
2026-05-05 19:52 37.69748 23.56076 5851 ft 359 kts 75°
2026-05-05 19:52 37.70349 23.59108 5437 ft 352 kts 75°
2026-05-05 19:52 37.70936 23.62060 5207 ft 340 kts 75°
2026-05-05 19:53 37.71500 23.64897 5003 ft 329 kts 75°
2026-05-05 19:53 37.72075 23.67652 4752 ft 320 kts 74°
2026-05-05 19:53 37.72641 23.70328 4501 ft 313 kts 74°
2026-05-05 19:53 37.73207 23.72986 4227 ft 306 kts 74°
2026-05-05 19:54 37.73833 23.75563 3761 ft 306 kts 69°
2026-05-05 19:54 37.74757 23.77947 3487 ft 299 kts 54°
2026-05-05 19:54 37.76291 23.79646 3238 ft 292 kts 31°
2026-05-05 19:54 37.78029 23.80974 3039 ft 284 kts 32°
2026-05-05 19:55 37.79630 23.82301 2986 ft 270 kts 34°
2026-05-05 19:55 37.81122 23.83671 2976 ft 256 kts 37°
2026-05-05 19:55 37.82529 23.85001 2735 ft 252 kts 37°
2026-05-05 19:55 37.83946 23.86344 2422 ft 250 kts 37°
2026-05-05 19:56 37.85321 23.87647 2104 ft 245 kts 37°
2026-05-05 19:56 37.86659 23.88917 1766 ft 234 kts 37°
2026-05-05 19:56 37.87910 23.90103 1467 ft 216 kts 36°
2026-05-05 19:56 37.89066 23.91201 1180 ft 200 kts 36°
2026-05-05 19:57 37.90130 23.92211 942 ft 182 kts 36°
2026-05-05 19:57 37.90786 23.92834 770 ft 173 kts 36°
2026-05-05 19:57 37.92021 23.94006 445 ft 158 kts 36°
2026-05-05 19:57 37.92843 23.94791 324 ft 135 kts 36°
2026-05-05 19:58 37.93449 23.95366 316 ft 73 kts 35°
2026-05-05 19:58 37.93703 23.95603 316 ft 36 kts 36°
2026-05-05 19:58 37.93927 23.95711 316 ft 23 kts 10°
2026-05-05 19:58 37.94031 23.95681 316 ft 17 kts 295°
2026-05-05 19:59 37.93974 23.95587 316 ft 16 kts 202°
2026-05-05 19:59 37.93886 23.95509 316 ft 15 kts 217°
2026-05-05 19:59 37.93806 23.95432 316 ft 14 kts 218°
2026-05-05 19:59 37.93731 23.95358 316 ft 14 kts 218°
2026-05-05 20:00 37.93629 23.95260 316 ft 22 kts 216°
2026-05-05 20:00 37.93490 23.95130 316 ft 27 kts 217°
2026-05-05 20:00 37.93393 23.95038 316 ft 25 kts 216°
2026-05-05 20:00 37.93263 23.94914 316 ft 23 kts 217°
2026-05-05 20:01 37.93139 23.94794 316 ft 23 kts 217°
2026-05-05 20:01 37.93079 23.94635 316 ft 23 kts 299°
2026-05-05 20:01 37.93136 23.94510 316 ft 6 kts 236°
2026-05-05 20:01 37.93104 23.94481 316 ft 6 kts 217°
2026-05-05 20:02 37.93085 23.94463 316 ft 0 kts 217°